CW8989 Weather Reports


time (UTC)temp
C
wind
direction
speed
KPH
gust
KPH
rain 1hr
cm
rain 24hr
cm
rain mn
cm
humidity
%
barometer
mb
20260504234545 21 180 0.0 3.2 0.00 0.00 0.00 49 1013.9
20260504233036 21 188 0.0 4.8 0.00 0.00 0.00 46 1013.9
20260504231527 22 116 1.6 8.0 0.00 0.00 0.00 44 1013.9
20260504230027 22 234 3.2 12.9 0.00 0.00 0.00 41 1014.0
20260504224523 22 163 4.8 12.9 0.00 0.00 0.00 37 1014.1
20260504223033 22 224 3.2 14.5 0.00 0.00 0.00 37 1014.1
20260504221513 23 201 6.4 17.7 0.00 0.00 0.00 38 1014.1
20260504220014 23 277 1.6 11.3 0.00 0.00 0.00 43 1014.1
20260504214557 23 194 0.0 0.0 0.00 0.00 0.00 44 1014.0
20260504213105 23 65 0.0 0.0 0.00 0.00 0.00 41 1014.1
20260504211553 23 138 0.0 0.0 0.00 0.00 0.00 45 1014.0
20260504210054 23 259 0.0 0.0 0.00 0.00 0.00 46 1014.1
20260504204548 23 134 0.0 0.0 0.00 0.00 0.00 45 1014.2
20260504203033 23 280 0.0 0.0 0.00 0.00 0.00 45 1014.3
20260504201522 23 101 0.0 0.0 0.00 0.00 0.00 41 1014.4
20260504200019 23 234 0.0 0.0 0.00 0.00 0.00 45 1014.6
20260504194511 24 254 0.0 0.0 0.00 0.00 0.00 40 1014.9
20260504193010 24 157 0.0 0.0 0.00 0.00 0.00 40 1015.1
20260504191603 23 220 0.0 0.0 0.00 0.00 0.00 41 1015.3
20260504191502 23 211 0.0 0.0 0.00 0.00 0.00 44 1015.4
20260504190049 23 207 0.0 0.0 0.00 0.00 0.00 41 1015.5
20260504184539 24 185 0.0 0.0 0.00 0.00 0.00 48 1015.6
20260504183034 24 269 0.0 0.0 0.00 0.00 0.00 49 1015.8
20260504181525 23 267 0.0 0.0 0.00 0.00 0.00 45 1016.1
20260504180019 23 129 0.0 0.0 0.00 0.00 0.00 47 1016.3
20260504174507 23 105 0.0 0.0 0.00 0.00 0.00 48 1016.5
20260504173053 22 212 0.0 0.0 0.00 0.00 0.00 46 1016.7
20260504171548 23 138 0.0 0.0 0.00 0.00 0.00 48 1017.0
20260504160106 22 196 0.0 0.0 0.00 0.00 0.00 51 1017.6
20260504120105 5 355 0.0 0.0 0.00 0.00 0.00 90 1018.2
20260504081531 5 360 0.0 0.0 0.00 0.00 0.00 88 1017.8
20260504044521 6 360 0.0 0.0 0.00 0.00 0.00 85 1018.8
20260504043020 7 360 0.0 0.0 0.00 0.00 0.00 85 1018.8
20260504041509 7 360 0.0 0.0 0.00 0.00 0.00 85 1019.1
20260504040107 7 360 0.0 0.0 0.00 0.00 0.00 84 1019.1
20260504034629 7 360 0.0 0.0 0.00 0.00 0.00 83 1019.1
20260504033054 7 360 0.0 0.0 0.00 0.00 0.00 83 1019.1
20260504031556 8 360 0.0 0.0 0.00 0.00 0.00 82 1018.9
20260504030117 8 360 0.0 0.0 0.00 0.00 0.00 82 1019.1
20260504024554 8 360 0.0 0.0 0.00 0.00 0.00 81 1018.9
20260504023047 9 360 0.0 0.0 0.00 0.00 0.00 80 1018.8
20260504021549 9 360 0.0 0.0 0.00 0.00 0.00 79 1018.5
20260504020033 10 360 0.0 0.0 0.00 0.00 0.00 78 1018.5
20260504014528 10 333 0.0 0.0 0.00 0.00 0.00 77 1018.3
20260504013028 11 334 0.0 0.0 0.00 0.00 0.00 76 1018.2
20260504011519 11 333 0.0 0.0 0.00 0.00 0.00 74 1018.1
20260504010009 12 333 0.0 0.0 0.00 0.00 0.00 73 1017.8
20260504004515 13 333 0.0 0.0 0.00 0.00 0.00 71 1017.7
20260504003007 13 333 0.0 0.0 0.00 0.00 0.00 66 1017.5
20260504001507 15 333 0.0 0.0 0.00 0.00 0.00 65 1017.4
20260504000006 16 333 0.0 0.0 0.00 0.00 0.00 61 1017.4